Tracking 23757 objects as of 25-Oct-2021
HD Live streaming from Space Station
objects crossing your sky now

SL-8 R/B

Track SL-8 R/B now!
10-day predictions


NORAD ID: 13354
Int'l Code: 1982-069B
Perigee: 936.8 km
Apogee: 1,012.7 km
Inclination: 83.0 °
Period: 104.4 minutes
Semi major axis: 7345 km
RCS: 4.6655 m2 (large)
Launch date: July 7, 1982
Source: Commonwealth of Independent States (former USSR) (CIS)
Launch site: PLESETSK MISSILE AND SPACE COMPLEX (PKMTR)

Note: This is a ROCKET BODY
aabbcc
Your satellite tracking list
Your tracking list is empty




NASA's NSSDC Master Catalog

Two Line Element Set (TLE):
1 13354U 82069B   21297.93593124  .00000082  00000-0  65001-4 0  9994
2 13354  82.9605 237.7960 0051670 344.3733  15.5827 13.78941874976628
Source of the keplerian elements: AFSPC